Hourly Weather Roundup
Issued by NWS Central Illinois

Home | Current Version | Previous Version | Text Only | Print | Product List | Glossary On
Versions: 1 2 3 4 5 6 7 8 9 10 11 12 13 14 15 16 17 18 19 20 21 22 23 24 25 26 27 28 29 30 31 32 33 34 35 36 37 38 39 40 41 42 43 44 45 46 47 48 49 50
000
NZUS43 KILX 272110
HWRILX

AREA WEATHER ROUNDUP
NATIONAL WEATHER SERVICE, LINCOLN IL
400 PM CDT MON MAR 27 2017


CITY           SKY/WX    TMP DP  RH WIND       PRES   REMARKS
BLOOMINGTON    CLOUDY    56  53  90 NE10      29.86F
CHAMPAIGN      CLOUDY    59  53  80 E13       29.83F
DECATUR        CLOUDY    57  53  86 E15       29.82F
EFFINGHAM      CLOUDY    62  58  87 E5        29.80F
FLORA          CLOUDY    64  55  73 SW8       29.79S
GALESBURG      CLOUDY    52  49  88 N9        29.88S
JACKSONVILLE   CLOUDY    55  53  92 N7        29.84S
LACON          CLOUDY    53  50  89 N5        29.88R
LAWRENCEVILLE  PTSUNNY   67  57  70 S9        29.79F
LITCHFIELD     CLOUDY    54  53  99 N9        29.81S FOG
$$


CITY           SKY/WX    TMP DP  RH WIND       PRES   REMARKS
LINCOLN        CLOUDY    57  55  94 N9        29.84S
MACOMB         CLOUDY    55  52  91 N7        29.89S
MATTOON        CLOUDY    57  56  96 E6        29.80F
MT CARMEL AP   LGT RAIN  66  54  64 S13       29.78F
OLNEY-NOBLE AP CLOUDY    63  55  77 SW6       29.79F
PARIS          CLOUDY    56  55  94 E9        29.84S
PEORIA         CLOUDY    56  53  90 NE6       29.87S
PONTIAC        LGT RAIN  55  54  95 NE6       29.88S
RANTOUL        CLOUDY    61  53  75 NE9       29.84F
SPRINGFIELD    CLOUDY    58  54  86 N9        29.83F
TAYLORVILLE    DRIZZLE   55  54  94 NE7       29.82S
$$

...REGIONAL REPORTS...


CITY           SKY/WX    TMP DP  RH WIND       PRES   REMARKS
CHICAGO O`HARE LGT RAIN  49  42  77 NE7       29.91R
KANKAKEE       DRIZZLE   55  52  88 CALM      29.88F
MOLINE         CLOUDY    53  46  77 N5        29.90S
MOUNT STERLING CLOUDY    53  51  93 E6        29.85R
MOUNT VERNON   CLOUDY    62  55  77 SW12      29.79F
PITTSFIELD     CLOUDY    55  53  94 NE6       29.85F
QUINCY         CLOUDY    57  52  83 N8        29.84F
ROCKFORD       CLOUDY    52  44  74 CALM      29.93F
$$


CITY           SKY/WX    TMP DP  RH WIND       PRES   REMARKS
BURLINGTON     CLOUDY    53  50  89 N13       29.88S
CEDAR RAPIDS   CLOUDY    50  46  86 N8        29.91F
DES MOINES     CLOUDY    51  42  71 N6        29.95S
KIRKSVILLE     CLOUDY    51  48  89 N13       29.91R
OTTUMWA        CLOUDY    50  46  86 N10       29.92S
ST LOUIS       CLOUDY    56  52  86 N10       29.83S
$$


CITY           SKY/WX    TMP DP  RH WIND       PRES   REMARKS
TERRE HAUTE    CLOUDY    59  53  80 E5        29.83S
EVANSVILLE     RAIN      62  55  77 S8        29.80F
INDIANAPOLIS   CLOUDY    59  53  80 E8        29.84F
LAFAYETTE      LGT RAIN  60  54  80 E7        29.84F
MADISON        CLOUDY    48  42  80 CALM      29.92F
MILWAUKEE      CLOUDY    45  38  76 E5        29.94S
$$






USA.gov is the U.S. government's official web portal to all federal, state and local government web resources and services.